This demonstration page uses our WeatherBlox Daily Observations layout. Learn more.

Left ArrowRight Arrow

41.55636, -103.73856

Hourly Observations for July 14, 2020

Temp ( °F °C ) Dew Point ( °F °C ) Humidity (%) Winds ( mph kmh ) Pressure ( in mb ) Visibility ( mi km ) Precip ( " mm )
6:58 pm 18:58 Clear 67 19.5 55 12.7 65 65 SSE 29 46 29.73 1007 10 16 0.00 0.00
7:58 pm 19:58 Clear 70 21.1 51 10.5 51 51 SSE 21 33 29.73 1007 10 16 0.00 0.00
8:58 pm 20:58 Clear 67 19.7 50 10.2 54 54 S 12 19 29.74 1007 10 16 0.00 0.00
9:58 pm 21:58 Clear 67 19.4 51 10.6 57 57 S 21 33 29.73 1007 10 16 0.00 0.00
10:58 pm 22:58 Clear 66 18.8 50 10.2 58 58 SSW 9 15 29.77 1008 10 16 0.00 0.00
11:58 pm 23:58 Mostly Cloudy 64 17.7 52 11 65 65 ESE 8 13 29.80 1009 10 16 0.00 0.00
12:58 am 00:58 Mostly Clear 65 18.1 52 11.3 65 65 WSW 17 28 29.77 1008 10 16 0.00 0.00
1:58 am 01:58 Clear 67 19.6 51 10.6 56 56 SW 18 30 29.74 1007 10 16 0.00 0.00
2:58 am 02:58 Clear 63 17.1 49 9.6 62 62 W 14 22 29.81 1009 10 16 0.00 0.00
3:58 am 03:58 Mostly Clear 59 14.8 44 6.7 59 59 WNW 8 13 29.84 1011 10 16 0.00 0.00
4:58 am 04:58 Mostly Cloudy 59 15 55 12.7 86 86 NNE 15 24 29.92 1013 10 16 0.00 0.00
5:58 am 05:58 Mostly Cloudy 55 12.8 49 9.7 82 82 ENE 14 22 29.98 1015 10 16 0.00 0.00
6:58 am 06:58 Mostly Cloudy 56 13.4 48 8.8 74 74 ENE 18 30 30.00 1016 10 16 0.00 0.00
7:58 am 07:58 Mostly Cloudy 57 14.1 48 8.7 70 70 ENE 14 22 30.01 1016 10 16 0.00 0.00
8:58 am 08:58 Mostly Cloudy 59 15.2 47 8.5 65 65 E 14 22 30.03 1017 10 16 0.00 0.00
9:58 am 09:58 Mostly Cloudy 61 16.2 49 9.3 64 64 E 13 20 30.02 1017 10 16 0.00 0.00
10:58 am 10:58 Mostly Cloudy 64 17.9 49 9.4 58 58 E 13 20 30.03 1017 10 16 0.00 0.00
11:58 am 11:58 Mostly Sunny 66 19.1 50 10.1 56 56 ESE 12 19 30.03 1017 10 16 0.00 0.00
12:58 pm 12:58 Mostly Sunny 69 20.5 50 10.2 52 52 ESE 9 15 29.99 1016 10 16 0.00 0.00
1:58 pm 13:58 Sunny 73 22.6 49 9.7 44 44 ENE 12 19 29.96 1015 10 16 0.00 0.00
2:58 pm 14:58 Sunny 75 23.8 50 9.8 41 41 E 10 17 29.96 1014 10 16 0.00 0.00
3:58 pm 15:58 Mostly Sunny 76 24.6 50 10.1 40 40 E 12 19 29.94 1014 10 16 0.00 0.00
4:58 pm 16:58 Mostly Sunny 77 25.1 50 9.8 38 38 E 13 20 29.94 1014 10 16 0.00 0.00
5:58 pm 17:58 Partly Cloudy 77 24.9 50 9.9 39 39 SE 12 19 29.96 1015 10 16 0.00 0.00

Powered by AerisWeather